Change the Weather History Date:

Friday, June 1, 2012

  Actual Average Record
Temperature  
Mean Temperature 55 °F -  
Max Temperature 69 °F 76 °F 94 °F (1988)
Min Temperature 41 °F 52 °F 39 °F (1993)
Degree Days  
Heating Degree Days 10    
Growing Degree Days 5 (Base 50)    
Moisture  
Dew Point 39 °F    
Average Humidity 56    
Maximum Humidity 93    
Minimum Humidity 31    
Precipitation  
Precipitation 0.00 in - - ()
Sea Level Pressure  
Sea Level Pressure 29.89 in    
Wind  
Wind Speed 2 mph (West)    
Max Wind Speed 8 mph    
Max Gust Speed -    
Visibility 10 miles    
Events      
Averages and records for this station are not official NWS values.
T = Trace of Precipitation, MM = Missing Value Source: NWS Daily Summary

Daily Weather History Graph

Daily Weather History Graph

Search for Another Location

Airport or City:

Trip Planner

Search our weather history database for the weather conditions in past years. The results will help you decide how hot, cold, wet, or windy it might be!

Date:

Astronomy

Jun. 01, 2012 Rise Set
Actual Time 5:30 AM CDT 8:51 PM CDT
Civil Twilight 4:54 AM CDT 9:27 PM CDT
Nautical Twilight 4:07 AM CDT 10:14 PM CDT
Astronomical Twilight 3:08 AM CDT 11:13 PM CDT
Moon 5:49 PM CDT (6/1) 3:13 AM CDT (6/1)
Length of Visible Light 16h 33m
Length of Day
15h 21m
Waxing Gibbous, 89% of the Moon is Illuminated
Jun 1
Waxing Gibbous
Jun 4
Full
Jun 11
Last Quarter
Jun 19
New
Jun 26
First Quarter

Hourly Weather History & Observations

Time (CDT) Temp. Dew Point Humidity Pressure Visibility Wind Dir Wind Speed Gust Speed Precip Events Conditions
12:12 AM 44.6 °F 42.8 °F 93% 29.99 in 10.0 mi Calm Calm - N/A   Clear
12:33 AM 46.4 °F 41.0 °F 81% 29.99 in 10.0 mi Calm Calm - N/A   Clear
1:12 AM 44.6 °F 41.0 °F 87% 29.98 in 10.0 mi Calm Calm - N/A   Clear
1:33 AM 42.8 °F 39.2 °F 87% 29.97 in 10.0 mi Calm Calm - N/A   Clear
1:53 AM 42.8 °F 39.2 °F 87% 29.97 in 10.0 mi Calm Calm - N/A   Clear
2:12 AM 44.6 °F 39.2 °F 81% 29.97 in 10.0 mi Calm Calm - N/A   Clear
2:33 AM 42.8 °F 41.0 °F 93% 29.97 in 10.0 mi Calm Calm - N/A   Clear
2:52 AM 42.8 °F 41.0 °F 93% 29.96 in 10.0 mi Calm Calm - N/A   Clear
3:13 AM 42.8 °F 39.2 °F 87% 29.96 in 10.0 mi Calm Calm - N/A   Clear
3:33 AM 42.8 °F 39.2 °F 87% 29.95 in 10.0 mi Calm Calm - N/A   Clear
3:53 AM 42.8 °F 39.2 °F 87% 29.95 in 10.0 mi Calm Calm - N/A   Clear
4:13 AM 41.0 °F 39.2 °F 93% 29.95 in 10.0 mi Calm Calm - N/A   Clear
4:33 AM 42.8 °F 39.2 °F 87% 29.95 in 10.0 mi Calm Calm - N/A   Clear
4:52 AM 41.0 °F 39.2 °F 93% 29.95 in 10.0 mi Calm Calm - N/A   Clear
5:13 AM 41.0 °F 39.2 °F 93% 29.95 in 10.0 mi Calm Calm - N/A   Clear
5:33 AM 41.0 °F 39.2 °F 93% 29.95 in 10.0 mi Calm Calm - N/A   Clear
5:53 AM 42.8 °F 39.2 °F 87% 29.95 in 10.0 mi Calm Calm - N/A   Clear
6:13 AM 44.6 °F 41.0 °F 87% 29.95 in 10.0 mi Calm Calm - N/A   Clear
6:33 AM 46.4 °F 42.8 °F 87% 29.95 in 10.0 mi Calm Calm - N/A   Clear
7:13 AM 51.8 °F 44.6 °F 76% 29.96 in 10.0 mi Calm Calm - N/A   Clear
7:33 AM 53.6 °F 46.4 °F 77% 29.95 in 10.0 mi West 3.5 mph - N/A   Clear
7:53 AM 55.4 °F 46.4 °F 72% 29.95 in 10.0 mi West 3.5 mph - N/A   Clear
8:13 AM 57.2 °F 44.6 °F 63% 29.95 in 10.0 mi WNW 3.5 mph - N/A   Clear
8:33 AM 60.8 °F 44.6 °F 55% 29.95 in 10.0 mi West 5.8 mph - N/A   Clear
9:13 AM 60.8 °F 41.0 °F 48% 29.95 in 10.0 mi West 6.9 mph - N/A   Clear
9:33 AM 62.6 °F 39.2 °F 42% 29.94 in 10.0 mi WNW 6.9 mph - N/A   Clear
9:53 AM 62.6 °F 37.4 °F 39% 29.94 in 10.0 mi Calm Calm - N/A   Clear
10:13 AM 62.6 °F 37.4 °F 39% 29.93 in 10.0 mi WSW 3.5 mph - N/A   Clear
10:33 AM 62.6 °F 39.2 °F 42% 29.93 in 10.0 mi SSW 3.5 mph - N/A   Clear
11:13 AM 64.4 °F 39.2 °F 40% 29.92 in 10.0 mi West 8.1 mph - N/A   Clear
11:33 AM 62.6 °F 35.6 °F 37% 29.92 in 10.0 mi South 4.6 mph - N/A   Scattered Clouds
11:52 AM 64.4 °F 37.4 °F 37% 29.91 in 10.0 mi Calm Calm - N/A   Scattered Clouds
12:13 PM 66.2 °F 37.4 °F 35% 29.90 in 10.0 mi NNE 3.5 mph - N/A   Clear
12:33 PM 64.4 °F 37.4 °F 37% 29.89 in 10.0 mi WSW 6.9 mph - N/A   Clear
12:53 PM 66.2 °F 39.2 °F 37% 29.89 in 10.0 mi NNW 6.9 mph - N/A   Clear
1:13 PM 66.2 °F 37.4 °F 35% 29.89 in 10.0 mi NNW 5.8 mph - N/A   Scattered Clouds
1:33 PM 66.2 °F 35.6 °F 32% 29.88 in 10.0 mi Calm Calm - N/A   Clear
1:53 PM 66.2 °F 37.4 °F 35% 29.87 in 10.0 mi Calm Calm - N/A   Clear
2:13 PM 64.4 °F 37.4 °F 37% 29.87 in 10.0 mi West 8.1 mph - N/A   Scattered Clouds
2:33 PM 68.0 °F 39.2 °F 35% 29.86 in 10.0 mi NW 6.9 mph - N/A   Scattered Clouds
2:53 PM 68.0 °F 37.4 °F 33% 29.86 in 10.0 mi West 5.8 mph - N/A   Clear
3:13 PM 68.0 °F 37.4 °F 33% 29.85 in 10.0 mi West 6.9 mph - N/A   Clear
3:33 PM 68.0 °F 37.4 °F 33% 29.84 in 10.0 mi WSW 3.5 mph - N/A   Clear
3:53 PM 69.8 °F 37.4 °F 31% 29.84 in 10.0 mi West 6.9 mph - N/A   Clear
4:13 PM 68.0 °F 37.4 °F 33% 29.83 in 10.0 mi WNW 8.1 mph - N/A   Clear
4:33 PM 68.0 °F 37.4 °F 33% 29.83 in 10.0 mi WSW 6.9 mph - N/A   Clear
4:53 PM 68.0 °F 37.4 °F 33% 29.82 in 10.0 mi WSW 4.6 mph - N/A   Clear
5:12 PM 68.0 °F 37.4 °F 33% 29.81 in 10.0 mi WSW 5.8 mph - N/A   Clear
5:33 PM 68.0 °F 37.4 °F 33% 29.81 in 10.0 mi WSW 4.6 mph - N/A   Clear
6:13 PM 66.2 °F 37.4 °F 35% 29.81 in 10.0 mi WSW 5.8 mph - N/A   Clear
6:33 PM 66.2 °F 35.6 °F 32% 29.80 in 10.0 mi West 4.6 mph - N/A   Clear
6:53 PM 66.2 °F 35.6 °F 32% 29.81 in 10.0 mi WSW 4.6 mph - N/A   Clear
7:12 PM 66.2 °F 35.6 °F 32% 29.80 in 10.0 mi WNW 5.8 mph - N/A   Clear
7:33 PM 66.2 °F 37.4 °F 35% 29.80 in 10.0 mi West 3.5 mph - N/A   Clear
7:53 PM 64.4 °F 35.6 °F 34% 29.80 in 10.0 mi West 4.6 mph - N/A   Clear
8:13 PM 64.4 °F 37.4 °F 37% 29.80 in 10.0 mi West 4.6 mph - N/A   Clear
8:33 PM 62.6 °F 37.4 °F 39% 29.80 in 10.0 mi WSW 3.5 mph - N/A   Clear
8:53 PM 60.8 °F 37.4 °F 42% 29.80 in 10.0 mi West 3.5 mph - N/A   Clear
9:13 PM 59.0 °F 39.2 °F 48% 29.80 in 7.0 mi West 3.5 mph - N/A   Clear
9:33 PM 59.0 °F 37.4 °F 45% 29.80 in 10.0 mi West 4.6 mph - N/A   Clear
9:53 PM 55.4 °F 42.8 °F 63% 29.80 in 7.0 mi Calm Calm - N/A   Clear
10:12 PM 53.6 °F 42.8 °F 67% 29.80 in 7.0 mi Calm Calm - N/A   Clear
10:33 PM 53.6 °F 41.0 °F 62% 29.80 in 10.0 mi WSW 5.8 mph - N/A   Scattered Clouds
10:53 PM 57.2 °F 42.8 °F 59% 29.80 in 10.0 mi WSW 3.5 mph - N/A   Mostly Cloudy
11:33 PM 55.4 °F 42.8 °F 63% 29.80 in 10.0 mi WSW 4.6 mph - N/A   Clear
11:53 PM 55.4 °F 44.6 °F 67% 29.79 in 10.0 mi WSW 4.6 mph - N/A   Clear